Temperature
28 28 27 27 28 29 29 29 28 28 27 28 29 29 29 29 28 27 26 25 24 23 22 21 20 19 19 18 17 17 16 16 15 15 14 13 13 13 12 12 12 12 11 11
28 29 29 29 30 30 30 30 30 29 28 29 29 29 29 28 28 27 26 25 24 23 22 21 20 19 18 18 17 17 16 15 15 14 14 14 13 13 13 12 12 12 12 11
27 28 29 28 29 30 30 30 29 29 29 29 29 29 28 28 27 27 26 25 24 23 22 21 20 19 18 18 17 16 16 15 15 15 14 14 13 13 13 12 12 12 12 11
27 27 26 28 30 29 29 29 29 30 30 30 29 28 28 27 27 26 26 25 24 23 22 21 20 19 18 18 17 17 16 16 15 15 14 14 14 13 13 13 12 12 12 12
27 26 27 28 28 27 27 27 28 29 29 29 29 28 27 27 26 25 25 25 24 23 22 21 20 19 18 18 17 17 16 16 15 15 15 14 14 13 13 13 13 12 12 12
26 26 26 26 25 25 25 25 27 27 27 27 27 27 26 26 26 25 25 24 23 23 22 21 20 19 19 18 17 17 17 16 16 15 15 14 14 14 13 13 13 12 12 12
25 26 26 25 25 24 23 22 25 26 26 26 26 26 26 26 25 25 24 23 23 22 22 21 20 19 19 18 17 17 17 16 16 15 15 14 14 14 13 13 12 12 12 12
24 24 23 23 23 22 21 23 24 25 25 25 25 25 25 25 24 24 23 23 22 22 21 20 20 19 19 18 18 17 17 16 16 15 15 14 14 14 13 13 12 12 12 12
25 23 21 21 20 21 22 23 24 24 24 24 25 25 24 24 23 23 22 22 21 21 20 20 19 19 18 18 17 17 16 16 15 15 15 14 14 13 13 13 12 12 12 12
24 23 22 21 22 22 22 23 23 23 23 23 23 23 23 22 22 21 21 21 21 20 19 19 18 18 18 17 17 16 16 16 15 15 15 14 14 13 13 13 13 12 12 12
24 23 22 22 22 22 22 22 22 22 22 22 21 21 21 20 20 20 20 20 20 19 19 18 18 17 17 16 16 16 15 15 15 14 14 14 14 14 13 13 13 13 12 12
23 23 22 21 21 22 22 21 21 21 20 20 20 19 19 19 19 19 19 18 18 18 18 17 17 17 16 16 15 15 15 14 14 14 14 14 14 14 14 14 13 13 13 12
23 23 22 21 21 22 21 21 20 20 19 19 18 18 18 18 17 17 17 17 17 17 17 17 16 16 15 15 15 14 14 14 14 13 14 14 14 14 14 14 13 13 13 12
21 21 21 21 21 20 20 20 20 19 18 18 17 17 17 17 16 16 16 16 16 16 16 15 15 15 15 14 14 13 13 13 13 13 13 13 13 13 13 13 13 13 13 13
20 20 20 19 19 19 19 19 19 18 17 17 16 16 16 16 15 15 15 15 15 15 14 14 14 14 13 13 13 13 13 12 12 13 13 13 13 13 13 13 13 13 13 13
19 19 19 19 18 18 18 17 17 17 16 16 16 15 15 15 15 14 14 14 14 13 13 13 13 13 12 12 12 12 12 12 12 12 12 13 13 13 13 13 13 13 12 12
19 18 18 17 17 16 16 16 16 16 15 15 15 15 15 14 14 13 13 13 13 13 12 12 12 12 11 11 11 11 11 12 12 12 12 12 12 13 13 13 13 12 12 12
17 17 16 16 16 15 15 15 15 15 15 15 14 14 14 13 13 13 12 12 12 12 12 11 11 11 11 11 11 11 11 11 11 12 12 12 12 12 12 12 12 12 12 11
16 15 15 15 15 15 15 14 14 14 14 14 14 13 13 13 12 12 12 11 12 12 11 11 11 10 10 10 10 10 10 10 11 11 11 12 12 12 12 12 12 11 11 11
15 15 15 15 15 14 14 14 14 13 13 13 13 13 12 12 12 11 11 11 11 11 11 10 10 10 10 10 10 9 9 10 10 10 11 11 11 11 11 11 11 11 11 11
15 15 15 15 14 14 14 13 13 13 13 12 12 12 12 12 11 11 11 11 11 11 10 10 10 10 9 9 9 9 9 9 10 10 10 10 10 11 11 10 10 10 10 10
14 14 14 14 13 13 13 13 12 12 12 12 12 12 11 11 11 11 11 11 11 11 10 10 10 9 9 9 8 8 9 9 9 9 9 9 10 10 10 10 10 10 9 9
13 13 13 13 13 12 12 12 12 12 12 12 11 11 11 11 11 11 11 11 11 10 10 9 9 9 9 8 8 8 8 8 8 8 8 8 9 9 9 9 9 9 9 9
12 12 12 12 12 12 12 12 12 12 12 11 12 12 11 11 11 11 11 11 10 10 9 9 9 8 8 7 7 7 7 7 7 7 7 7 7 8 8 8 8 8 8 8
12 12 12 12 12 12 12 12 12 12 12 12 12 12 12 11 11 11 10 10 10 9 9 9 8 8 7 7 7 7 6 6 6 6 6 6 7 7 7 7 7 7 7 7
12 12 12 12 11 11 11 11 12 12 12 11 11 11 11 11 11 10 10 10 9 9 8 8 7 7 7 6 6 6 5 5 5 5 5 5 6 6 6 6 6 6 6 6
12 12 12 12 12 12 12 11 11 11 11 11 10 10 10 10 10 10 9 9 8 8 8 7 7 6 6 5 5 5 4 4 4 4 4 4 5 5 5 5 5 6 6 6
Wind_Speed
13 11 11 15 15 12 10 9 9 7 5 4 2 3 3 4 6 7 9 11 10 10 10 9 8 8 7 7 6 5 5 5 5 4 4 4 5 5 6 6 8 7 7 7
16 16 14 16 13 12 11 10 10 7 3 2 3 4 3 2 3 6 7 9 11 11 11 10 10 9 8 7 7 7 6 5 5 4 4 5 5 6 6 6 6 6 7 8
15 16 16 14 11 11 10 7 6 4 1 3 2 3 2 2 2 3 5 7 9 11 10 10 10 9 9 8 7 7 7 6 5 5 5 5 6 5 5 6 6 7 7 8
14 14 16 11 5 4 5 5 5 3 2 2 3 2 2 3 3 3 3 5 8 10 11 11 10 10 9 9 8 8 8 7 7 6 6 5 5 6 6 5 6 6 7 8
13 15 14 10 6 9 6 4 5 3 4 4 3 1 2 5 5 4 4 4 6 8 10 10 11 11 10 9 9 9 9 8 7 6 5 5 6 6 6 6 6 7 8 8
13 15 14 3 2 3 6 2 7 8 8 8 6 3 4 6 5 4 4 5 6 8 8 9 9 10 10 9 9 9 8 7 6 5 6 6 6 6 6 6 7 8 8 8
14 14 8 4 4 2 1 1 6 7 6 5 6 6 2 1 2 4 4 4 6 6 7 8 8 8 9 9 9 8 6 6 6 6 6 7 7 6 6 7 8 9 9 9
8 9 3 6 5 3 1 4 6 7 6 6 6 7 6 4 3 3 4 4 5 5 6 6 7 7 7 7 6 5 5 6 6 6 7 7 6 7 7 8 9 9 10 10
1 2 3 4 4 1 0 3 6 8 9 8 8 8 7 6 4 2 2 3 3 4 5 6 6 6 7 6 5 5 6 6 6 6 6 7 7 8 8 8 9 9 8 7
1 5 7 6 6 4 4 6 7 8 9 10 10 11 10 9 7 4 2 1 2 3 3 4 5 6 6 5 5 5 6 6 6 7 8 8 8 9 9 8 7 7 7 6
1 5 6 8 7 7 8 8 10 11 12 12 12 12 12 10 9 7 6 4 2 1 1 2 3 4 5 4 5 6 6 6 7 9 10 9 9 9 10 9 9 8 7 6
2 4 5 5 4 6 8 10 11 11 12 13 13 13 12 11 10 9 7 7 5 3 2 2 2 3 4 4 4 5 6 8 9 8 8 8 8 9 13 15 14 16 15 12
5 6 8 7 7 8 9 10 11 12 12 12 13 13 12 11 10 10 9 8 7 6 5 4 3 2 2 3 4 6 7 8 8 9 9 9 8 9 8 9 13 16 17 17
8 7 7 8 9 9 9 9 11 11 12 12 12 12 12 11 11 11 10 10 9 8 7 6 6 5 4 4 4 6 8 10 10 10 10 10 10 9 8 8 7 7 11 17
6 7 9 8 8 9 9 9 9 10 11 11 11 11 11 11 10 10 10 10 10 9 9 9 8 7 7 6 6 8 10 10 10 11 10 11 10 10 10 9 8 7 6 6
8 9 9 8 9 9 10 10 9 9 9 9 9 10 10 10 10 10 10 10 10 10 9 8 8 8 9 9 10 10 10 14 13 12 12 11 10 10 9 8 7 6 6 6
8 8 8 8 8 8 8 8 7 8 9 10 10 10 10 10 10 10 10 11 10 9 8 7 8 10 11 11 12 12 12 12 12 11 11 11 10 10 9 8 7 6 6 6
11 10 9 7 6 5 6 7 8 9 10 11 11 11 10 10 10 10 10 11 10 9 7 8 10 12 12 11 10 11 12 13 12 11 10 10 9 9 9 8 8 8 6 6
9 7 5 4 4 5 6 7 8 9 10 11 11 11 10 10 10 10 10 11 11 8 7 9 12 12 13 9 12 10 13 14 13 12 11 10 9 10 9 8 6 6 6 5
5 3 2 3 4 6 7 9 10 11 11 11 11 11 11 10 10 10 10 10 9 6 6 8 11 11 10 10 13 14 15 15 14 12 11 10 9 7 6 6 6 6 4 3
1 2 4 6 7 8 9 10 11 12 12 11 11 11 10 10 11 10 10 11 6 4 7 9 9 8 10 12 15 15 15 14 12 11 10 10 8 7 6 5 5 4 3 3
4 6 8 9 10 11 10 11 12 13 12 11 11 12 12 11 12 10 9 8 7 3 6 10 9 9 12 14 14 15 14 13 11 10 9 9 8 7 5 5 4 3 3 3
6 8 9 11 12 12 13 12 13 12 12 12 12 12 12 10 11 11 11 7 7 5 7 9 7 8 12 12 13 13 12 12 11 10 10 9 9 7 6 5 4 3 3 3
9 10 11 12 12 13 14 13 12 11 12 13 12 11 10 10 9 9 9 8 6 6 9 6 4 8 10 10 11 11 11 11 10 10 9 9 8 7 6 5 4 3 3 3
11 12 13 13 13 12 12 12 13 12 12 10 11 11 10 9 9 10 10 11 10 9 10 6 3 6 9 9 9 10 10 9 10 10 10 9 8 7 6 4 4 4 4 4
11 11 10 10 11 10 12 11 11 10 11 11 11 11 11 10 10 10 9 11 12 9 9 7 6 7 8 9 9 9 9 9 9 8 9 8 8 7 7 7 7 6 5 5
11 10 8 10 10 10 10 10 11 11 11 10 11 11 12 12 11 10 10 9 9 9 8 7 7 7 8 8 8 8 8 7 7 7 8 7 7 7 7 7 6 6 6 6
Wind_Direction
289 268 236 244 249 252 259 269 275 268 259 255 230 133 130 153 163 171 164 165 163 161 161 163 165 167 178 183 179 182 184 208 218 220 228 241 251 257 259 264 274 277 279 279
291 286 278 275 273 269 264 267 275 274 271 89 91 105 107 132 176 178 176 177 171 169 167 171 174 179 184 185 179 174 193 216 222 225 236 244 250 254 258 262 270 274 276 279
283 291 293 283 281 279 278 277 285 291 53 108 91 83 102 152 211 211 191 182 174 173 172 173 178 181 182 183 180 183 196 214 223 226 235 244 262 268 271 273 274 273 274 275
278 281 276 280 292 295 283 282 267 243 199 145 129 121 153 163 175 198 205 183 172 174 173 175 179 182 183 187 186 193 201 211 220 226 236 241 251 260 264 270 275 276 276 276
273 271 268 278 334 345 324 311 334 17 44 41 63 276 214 150 155 176 195 175 166 178 181 177 180 180 180 193 194 201 208 211 218 224 234 242 251 257 263 266 269 271 273 270
261 269 278 300 70 357 341 309 12 42 37 7 343 324 79 127 161 175 172 159 165 178 176 170 176 175 180 195 201 209 212 210 212 218 230 243 252 257 264 265 269 273 272 271
258 270 280 43 88 79 270 10 0 31 32 4 345 331 1 153 157 141 144 157 164 172 170 167 168 169 185 200 208 210 212 210 211 217 225 236 243 245 252 261 267 270 274 273
254 275 309 32 51 64 19 331 343 356 4 5 333 324 346 1 64 118 146 167 172 169 161 156 160 171 191 208 211 206 212 219 222 222 238 250 242 246 248 253 261 263 264 266
220 180 127 67 83 121 328 355 2 360 356 349 343 351 359 17 48 75 140 157 161 165 162 160 165 177 202 211 209 215 221 226 231 236 237 245 251 254 254 251 256 261 266 272
356 113 131 139 135 117 67 38 22 17 14 12 10 8 13 25 29 38 41 78 121 152 177 184 184 195 211 210 206 219 228 231 235 241 244 243 241 250 256 257 259 265 272 279
229 117 97 62 54 56 57 48 40 33 30 26 24 21 21 29 26 24 27 27 55 95 188 202 194 204 208 214 211 222 233 242 248 250 250 249 246 244 247 248 248 251 262 269
90 102 99 87 65 60 62 58 52 46 43 39 35 31 29 30 27 22 24 22 18 9 335 302 252 228 217 213 220 233 247 252 258 260 260 259 258 261 243 238 240 232 234 243
68 78 99 103 78 64 69 69 63 55 48 42 36 31 31 29 26 23 21 18 10 357 342 327 307 283 263 237 236 244 259 267 270 272 273 273 270 270 271 255 238 235 236 239
81 84 93 83 76 62 59 63 63 56 47 39 33 27 23 20 19 18 14 7 1 352 343 337 327 320 319 306 279 268 270 271 268 267 267 268 269 270 269 267 265 255 238 235
97 103 102 92 81 68 54 50 50 44 36 29 25 20 16 12 10 8 6 2 357 350 351 345 341 345 347 330 311 295 285 278 274 274 272 272 272 271 268 266 265 267 273 246
111 108 106 94 75 60 49 41 33 25 19 14 10 6 3 359 358 358 357 355 349 344 343 340 342 347 342 329 315 301 288 279 276 279 278 274 272 272 270 268 268 271 276 278
121 107 93 82 69 53 37 25 14 7 1 358 355 354 353 352 350 352 350 348 343 335 336 345 358 351 337 326 317 309 303 298 283 275 275 274 274 276 275 273 274 275 273 272
86 84 78 66 49 34 16 9 3 359 354 346 342 344 344 341 341 342 339 335 330 329 348 6 4 344 326 321 322 314 309 304 300 290 283 279 280 280 275 272 277 281 277 267
95 91 82 62 28 8 356 350 346 344 340 336 333 332 331 331 334 334 333 327 319 321 353 356 345 327 318 338 342 321 311 306 302 298 293 283 274 274 274 275 276 276 276 279
92 75 29 354 348 346 340 341 338 334 330 327 324 323 323 326 327 323 321 311 313 332 343 340 326 317 326 349 342 321 310 303 299 298 298 294 293 288 283 283 282 283 289 298
6 337 335 336 339 337 336 335 328 320 318 319 318 317 319 322 318 313 307 307 317 347 329 318 311 327 342 338 321 312 307 305 306 306 304 301 301 300 295 293 292 292 300 303
339 333 330 326 325 323 323 320 315 311 313 316 318 317 314 309 305 303 300 300 312 339 321 319 328 350 340 324 317 311 309 309 312 315 313 313 310 304 297 293 296 302 304 298
323 321 318 315 314 312 311 309 305 307 312 312 307 303 299 298 297 298 300 306 317 326 315 318 332 331 321 317 315 313 319 323 323 322 322 323 319 316 315 312 319 322 320 319
312 309 307 308 307 304 301 300 302 302 297 293 292 293 295 295 297 301 310 319 322 310 310 319 319 319 310 315 320 327 331 331 330 328 328 326 324 328 338 334 333 345 357 1
301 300 298 297 296 295 301 303 301 296 294 298 305 311 309 310 314 319 319 318 325 320 315 318 313 318 319 326 332 334 334 337 337 332 330 332 336 338 342 350 6 18 17 14
289 287 289 291 292 291 291 292 295 301 307 310 313 315 315 315 316 315 315 320 325 326 320 329 340 329 329 333 338 337 337 338 337 338 342 344 347 350 358 7 14 16 14 13
294 290 284 285 293 300 307 310 310 311 313 315 318 318 317 317 317 320 323 324 325 330 335 340 340 339 342 345 346 347 347 347 349 348 348 351 355 358 2 7 11 15 17 18
Height
1471 1469 1472 1472 1466 1461 1463 1464 1471 1470 1470 1466 1463 1463 1466 1470 1474 1478 1482 1486 1490 1494 1498 1501 1504 1506 1507 1509 1510 1510 1510 1511 1510 1510 1510 1509 1508 1507 1506 1505 1503 1502 1501 1499
1472 1463 1460 1460 1454 1453 1454 1455 1457 1458 1462 1458 1460 1463 1466 1469 1473 1476 1480 1483 1487 1491 1495 1498 1500 1502 1504 1505 1506 1506 1506 1507 1507 1507 1506 1505 1504 1503 1502 1501 1500 1498 1496 1495
1476 1463 1461 1465 1454 1452 1452 1450 1453 1460 1459 1457 1460 1463 1466 1469 1472 1475 1477 1481 1484 1487 1491 1493 1496 1498 1500 1501 1502 1503 1503 1503 1503 1503 1502 1502 1501 1500 1498 1497 1495 1494 1492 1490
1472 1472 1483 1460 1445 1447 1451 1451 1450 1450 1452 1454 1459 1463 1466 1468 1471 1474 1476 1478 1481 1484 1487 1490 1492 1494 1496 1497 1498 1498 1499 1499 1499 1499 1498 1498 1496 1495 1494 1492 1491 1489 1487 1485
1471 1472 1465 1452 1450 1453 1457 1456 1451 1450 1452 1455 1458 1460 1463 1466 1470 1473 1474 1476 1478 1481 1483 1486 1488 1490 1491 1493 1494 1494 1494 1495 1495 1494 1494 1493 1492 1490 1489 1487 1486 1484 1482 1480
1468 1472 1473 1461 1455 1456 1461 1466 1456 1455 1457 1459 1460 1463 1465 1466 1468 1470 1472 1474 1475 1478 1480 1482 1484 1485 1487 1488 1489 1490 1490 1490 1490 1490 1489 1488 1487 1486 1484 1483 1481 1479 1477 1476
1466 1467 1459 1457 1456 1460 1476 1476 1462 1460 1461 1462 1464 1464 1465 1465 1466 1468 1469 1471 1473 1474 1476 1478 1480 1481 1482 1484 1485 1486 1486 1486 1486 1485 1484 1483 1482 1481 1479 1478 1476 1474 1472 1470
1465 1473 1473 1463 1462 1470 1472 1466 1464 1463 1463 1462 1464 1463 1463 1463 1464 1465 1466 1469 1470 1472 1473 1474 1475 1477 1478 1479 1481 1482 1482 1482 1481 1480 1479 1479 1477 1476 1474 1472 1470 1468 1466 1464
1455 1464 1464 1463 1466 1468 1467 1465 1465 1464 1464 1463 1463 1462 1462 1462 1463 1464 1465 1466 1467 1469 1470 1472 1473 1474 1475 1475 1477 1477 1477 1477 1476 1475 1474 1473 1472 1470 1469 1467 1465 1463 1462 1460
1453 1457 1461 1463 1465 1466 1466 1466 1465 1465 1464 1464 1463 1463 1463 1463 1463 1463 1464 1464 1465 1467 1468 1469 1470 1470 1471 1472 1472 1472 1472 1471 1470 1469 1468 1467 1466 1465 1463 1462 1460 1459 1457 1455
1454 1458 1461 1464 1466 1466 1466 1466 1466 1466 1465 1465 1465 1465 1465 1464 1464 1464 1464 1464 1465 1465 1466 1467 1467 1467 1468 1468 1468 1467 1467 1466 1464 1463 1462 1461 1459 1458 1456 1455 1454 1452 1451 1449
1455 1458 1460 1465 1466 1466 1466 1467 1468 1468 1468 1468 1468 1468 1467 1467 1466 1465 1465 1465 1465 1465 1466 1466 1466 1465 1465 1465 1464 1463 1462 1461 1460 1458 1456 1455 1453 1451 1449 1448 1446 1445 1444 1443
1455 1457 1460 1464 1467 1467 1468 1469 1470 1470 1471 1471 1471 1470 1470 1469 1468 1467 1466 1465 1465 1465 1464 1464 1463 1463 1462 1461 1460 1459 1457 1456 1454 1453 1451 1449 1447 1445 1443 1441 1440 1438 1437 1436
1458 1460 1463 1466 1468 1469 1470 1470 1472 1473 1473 1474 1473 1473 1472 1471 1469 1468 1467 1466 1465 1464 1463 1462 1461 1460 1458 1457 1456 1454 1452 1450 1448 1446 1444 1442 1440 1439 1437 1435 1433 1432 1430 1429
1460 1462 1466 1468 1470 1471 1472 1473 1474 1475 1476 1476 1475 1474 1473 1472 1470 1469 1468 1466 1465 1463 1462 1460 1458 1457 1455 1453 1451 1449 1447 1445 1442 1440 1438 1436 1434 1432 1430 1428 1427 1425 1424 1423
1463 1466 1468 1471 1473 1474 1476 1476 1477 1477 1477 1477 1476 1475 1473 1472 1471 1469 1467 1466 1464 1462 1460 1458 1456 1454 1451 1449 1446 1444 1441 1439 1436 1434 1431 1429 1427 1426 1424 1422 1421 1419 1418 1417
1465 1468 1471 1474 1476 1478 1478 1479 1479 1478 1478 1477 1476 1474 1473 1471 1470 1468 1466 1464 1462 1460 1458 1455 1453 1450 1448 1445 1442 1439 1436 1433 1430 1427 1424 1422 1420 1419 1417 1416 1414 1413 1412 1411
1469 1472 1475 1478 1479 1479 1480 1479 1479 1478 1477 1476 1475 1473 1471 1470 1468 1466 1464 1462 1460 1457 1455 1452 1449 1447 1444 1441 1438 1435 1431 1428 1425 1422 1418 1416 1414 1412 1411 1410 1408 1407 1406 1405
1474 1476 1478 1479 1480 1480 1480 1479 1478 1477 1476 1474 1473 1471 1469 1468 1466 1464 1462 1459 1457 1454 1451 1449 1446 1444 1441 1437 1433 1430 1427 1423 1419 1416 1413 1410 1407 1406 1405 1403 1402 1402 1401 1400
1476 1478 1479 1479 1479 1479 1479 1478 1477 1475 1474 1472 1470 1468 1466 1465 1463 1461 1459 1456 1454 1451 1448 1446 1443 1440 1437 1433 1429 1426 1422 1418 1414 1411 1407 1405 1402 1400 1399 1398 1397 1396 1396 1395
1477 1478 1478 1478 1478 1478 1477 1476 1474 1473 1471 1469 1467 1465 1463 1461 1460 1457 1455 1452 1450 1447 1444 1442 1440 1436 1433 1428 1424 1421 1417 1413 1409 1406 1402 1400 1397 1395 1394 1393 1392 1392 1391 1390
1477 1477 1478 1477 1477 1476 1475 1473 1471 1469 1467 1465 1463 1462 1460 1458 1455 1453 1450 1448 1445 1443 1440 1438 1436 1432 1428 1424 1420 1416 1412 1408 1405 1401 1398 1395 1393 1391 1390 1389 1388 1387 1387 1387
1477 1477 1476 1475 1474 1473 1471 1469 1467 1465 1463 1462 1460 1458 1455 1453 1451 1448 1446 1443 1441 1438 1436 1434 1430 1427 1423 1419 1415 1411 1408 1404 1401 1398 1395 1392 1389 1387 1386 1384 1384 1383 1383 1384
1475 1474 1473 1472 1471 1469 1467 1465 1463 1461 1459 1457 1455 1453 1451 1448 1446 1443 1441 1439 1436 1433 1431 1428 1425 1421 1418 1414 1411 1407 1404 1400 1397 1394 1391 1389 1386 1384 1383 1381 1380 1380 1380 1380
1472 1471 1470 1468 1466 1464 1462 1460 1458 1456 1454 1452 1450 1448 1446 1444 1442 1439 1437 1435 1432 1429 1426 1423 1420 1416 1414 1411 1407 1404 1400 1397 1394 1391 1389 1386 1384 1382 1380 1379 1378 1378 1378 1378
1468 1467 1465 1463 1462 1460 1458 1456 1454 1452 1450 1448 1446 1444 1443 1440 1438 1435 1432 1430 1427 1424 1422 1419 1416 1413 1410 1407 1403 1400 1396 1393 1390 1388 1386 1383 1382 1380 1378 1377 1377 1377 1377 1376
1463 1461 1460 1458 1457 1455 1453 1451 1450 1448 1446 1444 1442 1440 1438 1436 1433 1431 1428 1425 1423 1420 1417 1414 1412 1409 1406 1403 1399 1396 1393 1390 1388 1385 1383 1381 1379 1378 1377 1376 1375 1375 1375 1375